�������l�o���
Date,Time,MP-1(��Sv/h),MP-2(��Sv/h),MP-3(��Sv/h),MP-4(��Sv/h),MP-5(��Sv/h),MP-6(��Sv/h),MP-7(��Sv/h),MP-8(��Sv/h),����,����(m/s),���J
2017/09/02,00:00,0.925,1.456,0.950,1.753,1.200,0.506,0.928,0.859,�k,8.8,�L
2017/09/02,00:10,0.924,1.455,0.950,1.752,1.201,0.507,0.929,0.858,�k,9.7,�L
2017/09/02,00:20,0.924,1.455,0.949,1.752,1.201,0.506,0.930,0.859,�k�k��,10.0,�L
2017/09/02,00:30,0.925,1.454,0.951,1.751,1.199,0.505,0.929,0.858,�k�k��,10.2,�L
2017/09/02,00:40,0.923,1.451,0.951,1.747,1.196,0.507,0.928,0.857,�k�k��,9.6,�L
2017/09/02,00:50,0.917,1.443,0.945,1.740,1.186,0.506,0.924,0.852,�k�k��,10.7,�L
2017/09/02,01:00,0.916,1.432,0.943,1.733,1.184,0.504,0.923,0.852,�k�k��,11.6,�L
2017/09/02,01:10,0.912,1.431,0.939,1.728,1.180,0.502,0.921,0.853,�k�k��,11.3,�L
2017/09/02,01:20,0.910,1.427,0.936,1.726,1.175,0.503,0.923,0.853,�k�k��,10.3,�L
2017/09/02,01:30,0.910,1.425,0.937,1.719,1.176,0.502,0.920,0.853,�k�k��,10.5,�L
2017/09/02,01:40,0.910,1.426,0.936,1.725,1.175,0.501,0.922,0.852,�k�k��,10.3,�L
2017/09/02,01:50,0.910,1.426,0.935,1.720,1.174,0.502,0.920,0.852,�k��,11.3,�L
2017/09/02,02:00,0.909,1.426,0.936,1.719,1.174,0.502,0.921,0.853,�k��,10.7,�L
2017/09/02,02:10,0.908,1.418,0.932,1.717,1.169,0.501,0.922,0.852,�k�k��,8.5,�L
2017/09/02,02:20,0.907,1.417,0.932,1.715,1.170,0.499,0.920,0.852,�k�k��,9.0,�L
2017/09/02,02:30,0.907,1.418,0.933,1.717,1.170,0.501,0.922,0.852,�k�k��,8.9,�L
2017/09/02,02:40,0.909,1.419,0.934,1.716,1.173,0.499,0.919,0.852,�k�k��,9.1,�L
2017/09/02,02:50,0.908,1.423,0.933,1.718,1.171,0.501,0.921,0.851,�k,8.5,�L
2017/09/02,03:00,0.910,1.425,0.937,1.720,1.174,0.503,0.921,0.854,�k,8.3,�L
2017/09/02,03:10,0.910,1.426,0.935,1.721,1.175,0.502,0.920,0.855,�k�k��,7.2,�L
2017/09/02,03:20,0.909,1.427,0.935,1.721,1.174,0.502,0.922,0.856,�k�k��,9.3,�L
2017/09/02,03:30,0.911,1.430,0.935,1.721,1.180,0.503,0.923,0.856,�k,7.9,�L
2017/09/02,03:40,0.911,1.436,0.939,1.725,1.180,0.504,0.924,0.856,�k,7.8,�L
2017/09/02,03:50,0.910,1.431,0.937,1.721,1.178,0.502,0.923,0.856,�k�k��,8.4,��
2017/09/02,04:00,0.910,1.430,0.939,1.723,1.182,0.503,0.924,0.856,�k�k��,9.5,�L
2017/09/02,04:10,0.909,1.433,0.938,1.725,1.180,0.502,0.923,0.859,�k,10.2,�L
2017/09/02,04:20,0.913,1.434,0.937,1.724,1.182,0.505,0.921,0.857,�k,8.4,�L
2017/09/02,04:30,0.912,1.438,0.940,1.724,1.181,0.506,0.925,0.858,�k�k��,8.3,�L
2017/09/02,04:40,0.912,1.433,0.938,1.725,1.183,0.504,0.924,0.858,�k�k��,9.1,��
2017/09/02,04:50,0.911,1.434,0.940,1.725,1.184,0.505,0.925,0.859,�k,8.8,�L
2017/09/02,05:00,0.912,1.436,0.939,1.728,1.185,0.503,0.927,0.857,�k,9.2,�L
2017/09/02,05:10,0.912,1.436,0.941,1.727,1.182,0.505,0.923,0.857,�k�k��,9.6,�L
2017/09/02,05:20,0.912,1.435,0.939,1.727,1.182,0.503,0.922,0.860,�k�k��,8.3,�L
2017/09/02,05:30,0.911,1.436,0.939,1.729,1.186,0.501,0.924,0.858,�k,8.0,�L
2017/09/02,05:40,0.913,1.436,0.939,1.728,1.182,0.503,0.926,0.857,�k,8.4,�L
2017/09/02,05:50,0.913,1.433,0.939,1.726,1.182,0.503,0.924,0.857,�k�k��,8.3,�L
2017/09/02,06:00,0.913,1.436,0.940,1.728,1.184,0.504,0.923,0.859,�k,7.0,��
2017/09/02,06:10,0.915,1.437,0.940,1.728,1.185,0.502,0.926,0.860,�k�k��,7.1,��
2017/09/02,06:20,0.913,1.439,0.942,1.727,1.187,0.503,0.923,0.858,�k�k��,6.2,�L
2017/09/02,06:30,0.913,1.438,0.940,1.729,1.185,0.506,0.924,0.858,�k,4.9,�L
2017/09/02,06:40,0.914,1.438,0.939,1.729,1.186,0.504,0.923,0.859,�k�k��,4.0,�L
2017/09/02,06:50,0.912,1.439,0.941,1.729,1.187,0.505,0.924,0.858,�k�k��,5.2,�L
2017/09/02,07:00,0.916,1.438,0.940,1.730,1.186,0.504,0.925,0.860,�k�k��,5.8,�L
2017/09/02,07:10,0.916,1.438,0.942,1.732,1.187,0.504,0.924,0.859,�k�k��,6.9,�L
2017/09/02,07:20,0.916,1.439,0.942,1.731,1.185,0.506,0.925,0.857,�k�k��,6.7,�L
2017/09/02,07:30,0.916,1.438,0.942,1.732,1.187,0.506,0.925,0.860,�k�k��,7.4,�L
2017/09/02,07:40,0.916,1.438,0.940,1.729,1.187,0.506,0.925,0.859,�k�k��,8.3,�L
2017/09/02,07:50,0.917,1.439,0.940,1.729,1.187,0.505,0.927,0.860,�k�k��,8.7,�L
2017/09/02,08:00,0.916,1.438,0.941,1.731,1.185,0.504,0.926,0.860,�k��,7.6,�L
2017/09/02,08:10,0.915,1.437,0.941,1.733,1.186,0.504,0.925,0.858,�k�k��,7.5,�L
2017/09/02,08:20,0.913,1.438,0.942,1.733,1.187,0.505,0.925,0.859,�k�k��,6.9,�L
2017/09/02,08:30,0.915,1.437,0.942,1.731,1.184,0.504,0.922,0.858,�k�k��,8.2,�L
2017/09/02,08:40,0.917,1.438,0.941,1.732,1.186,0.507,0.923,0.859,�k�k��,8.0,�L
2017/09/02,08:50,0.914,1.439,0.941,1.731,1.186,0.505,0.926,0.861,�k�k��,7.1,�L
2017/09/02,09:00,0.915,1.436,0.941,1.734,1.184,0.502,0.924,0.858,�k�k��,7.8,�L
2017/09/02,09:10,0.914,1.436,0.943,1.733,1.185,0.506,0.924,0.860,�k�k��,7.9,�L
2017/09/02,09:20,0.917,1.440,0.942,1.732,1.186,0.505,0.926,0.859,�k�k��,7.3,�L
2017/09/02,09:30,0.914,1.439,0.944,1.731,1.185,0.505,0.924,0.861,�k�k��,7.3,�L
2017/09/02,09:40,0.916,1.440,0.942,1.736,1.187,0.505,0.925,0.861,�k�k��,7.3,�L
2017/09/02,09:50,0.915,1.439,0.943,1.733,1.185,0.506,0.928,0.862,�k�k��,7.0,�L
2017/09/02,10:00,0.917,1.439,0.942,1.735,1.186,0.506,0.926,0.859,�k�k��,7.1,�L
2017/09/02,10:10,0.915,1.437,0.946,1.734,1.190,0.506,0.926,0.860,�k�k��,6.8,�L
2017/09/02,10:20,0.916,1.443,0.943,1.736,1.189,0.504,0.927,0.860,�k�k��,7.1,�L
2017/09/02,10:30,0.915,1.437,0.945,1.733,1.188,0.504,0.925,0.858,�k�k��,7.7,�L
2017/09/02,10:40,0.915,1.437,0.943,1.735,1.186,0.506,0.928,0.857,�k�k��,8.6,�L
2017/09/02,10:50,0.916,1.438,0.943,1.735,1.188,0.503,0.927,0.857,�k�k��,7.9,�L
2017/09/02,11:00,0.913,1.435,0.945,1.735,1.187,0.504,0.927,0.857,�k�k��,7.0,�L
2017/09/02,11:10,0.911,1.436,0.944,1.734,1.185,0.505,0.927,0.857,�k�k��,7.5,�L
2017/09/02,11:20,0.911,1.432,0.943,1.734,1.188,0.505,0.927,0.854,�k�k��,8.6,�L
2017/09/02,11:30,0.910,1.432,0.941,1.734,1.185,0.506,0.927,0.856,�k�k��,8.7,�L
2017/09/02,11:40,0.912,1.433,0.939,1.732,1.186,0.505,0.924,0.856,�k�k��,8.8,�L
2017/09/02,11:50,0.910,1.431,0.941,1.731,1.183,0.504,0.926,0.854,�k�k��,7.6,�L
2017/09/02,12:00,0.911,1.429,0.941,1.732,1.186,0.504,0.927,0.856,�k�k��,8.8,�L
2017/09/02,12:10,0.911,1.434,0.941,1.735,1.184,0.505,0.925,0.857,�k��,8.8,�L
2017/09/02,12:20,0.914,1.435,0.942,1.735,1.184,0.506,0.925,0.855,�k��,8.1,�L
2017/09/02,12:30,0.913,1.434,0.942,1.733,1.185,0.507,0.925,0.858,�k�k��,6.9,�L
2017/09/02,12:40,0.914,1.436,0.941,1.734,1.185,0.506,0.927,0.858,�k�k��,7.5,�L
2017/09/02,12:50,0.911,1.438,0.943,1.732,1.184,0.505,0.924,0.856,�k,8.9,�L
2017/09/02,13:00,0.911,1.435,0.945,1.734,1.186,0.506,0.925,0.856,�k�k��,10.0,�L
2017/09/02,13:10,0.910,1.434,0.941,1.730,1.183,0.505,0.924,0.857,�k�k��,9.7,�L
2017/09/02,13:20,0.910,1.435,0.941,1.734,1.181,0.505,0.925,0.856,�k�k��,10.2,�L
2017/09/02,13:30,0.912,1.432,0.943,1.735,1.184,0.505,0.924,0.856,�k��,10.3,�L
2017/09/02,13:40,0.909,1.429,0.940,1.735,1.180,0.504,0.925,0.855,�k��,8.9,�L
2017/09/02,13:50,0.902,1.421,0.934,1.727,1.177,0.503,0.923,0.855,�k�k��,8.6,�L
2017/09/02,14:00,0.901,1.417,0.932,1.720,1.173,0.503,0.922,0.855,�k�k��,9.3,�L
2017/09/02,14:10,0.902,1.418,0.932,1.717,1.171,0.504,0.923,0.854,�k�k��,9.5,�L
2017/09/02,14:20,0.901,1.416,0.932,1.720,1.172,0.501,0.923,0.854,�k�k��,9.6,�L
2017/09/02,14:30,0.899,1.418,0.933,1.719,1.173,0.502,0.922,0.855,�k�k��,9.5,�L
2017/09/02,14:40,0.903,1.420,0.932,1.720,1.173,0.501,0.924,0.853,�k�k��,9.9,�L
2017/09/02,14:50,0.904,1.419,0.935,1.719,1.173,0.501,0.925,0.855,�k�k��,9.5,�L
2017/09/02,15:00,0.904,1.419,0.934,1.721,1.176,0.503,0.923,0.855,�k�k��,9.8,�L
2017/09/02,15:10,0.906,1.422,0.937,1.722,1.176,0.504,0.922,0.855,�k�k��,7.6,�L
2017/09/02,15:20,0.905,1.421,0.939,1.724,1.177,0.502,0.922,0.856,�k�k��,9.7,�L
2017/09/02,15:30,0.907,1.422,0.938,1.722,1.177,0.504,0.925,0.854,�k�k��,9.0,�L
2017/09/02,15:40,0.906,1.427,0.938,1.723,1.180,0.502,0.923,0.855,�k�k��,8.5,�L
2017/09/02,15:50,0.907,1.428,0.937,1.723,1.178,0.503,0.924,0.856,�k�k��,8.8,�L
2017/09/02,16:00,0.907,1.424,0.938,1.725,1.180,0.503,0.924,0.853,�k�k��,8.3,�L
2017/09/02,16:10,0.907,1.427,0.939,1.726,1.180,0.503,0.923,0.854,�k�k��,8.0,�L
2017/09/02,16:20,0.908,1.427,0.940,1.726,1.182,0.503,0.924,0.859,�k�k��,8.7,��
2017/09/02,16:30,0.909,1.428,0.937,1.726,1.184,0.503,0.925,0.857,�k�k��,7.7,��
2017/09/02,16:40,0.909,1.429,0.941,1.725,1.183,0.504,0.923,0.857,�k�k��,8.3,�L
2017/09/02,16:50,0.909,1.429,0.940,1.728,1.184,0.506,0.924,0.858,�k�k��,7.9,�L
2017/09/02,17:00,0.909,1.430,0.940,1.726,1.182,0.504,0.924,0.857,�k�k��,7.9,�L
2017/09/02,17:10,0.909,1.432,0.942,1.729,1.183,0.504,0.923,0.856,�k,6.9,�L
2017/09/02,17:20,0.911,1.433,0.940,1.729,1.183,0.503,0.923,0.857,�k,10.0,�L
2017/09/02,17:30,0.910,1.432,0.941,1.728,1.182,0.505,0.925,0.856,�k,11.6,��
2017/09/02,17:40,0.910,1.433,0.942,1.727,1.184,0.503,0.923,0.857,�k,12.4,�L
2017/09/02,17:50,0.911,1.435,0.940,1.728,1.183,0.505,0.922,0.857,�k,12.4,��
2017/09/02,18:00,0.911,1.437,0.942,1.729,1.183,0.505,0.923,0.857,�k�k��,11.8,�L
2017/09/02,18:10,0.912,1.433,0.941,1.730,1.184,0.502,0.923,0.858,�k,10.3,��
2017/09/02,18:20,0.912,1.436,0.941,1.730,1.182,0.503,0.924,0.857,�k�k��,11.3,��
2017/09/02,18:30,0.912,1.435,0.942,1.728,1.184,0.503,0.925,0.856,�k�k��,11.3,��
2017/09/02,18:40,0.912,1.432,0.940,1.732,1.186,0.503,0.926,0.857,�k�k��,10.5,��
2017/09/02,18:50,0.912,1.434,0.940,1.730,1.184,0.503,0.926,0.857,�k,7.4,��
2017/09/02,19:00,0.911,1.433,0.941,1.729,1.183,0.503,0.925,0.857,�k�k��,8.5,��
2017/09/02,19:10,0.912,1.435,0.942,1.734,1.185,0.503,0.926,0.856,�k,11.3,��
2017/09/02,19:20,0.911,1.434,0.941,1.734,1.185,0.503,0.926,0.855,�k,8.2,��
2017/09/02,19:30,0.910,1.435,0.940,1.731,1.186,0.504,0.925,0.858,�k�k��,5.4,��
2017/09/02,19:40,0.909,1.440,0.941,1.733,1.186,0.504,0.927,0.858,�k�k��,5.5,��
2017/09/02,19:50,0.912,1.439,0.942,1.734,1.183,0.505,0.925,0.857,�k�k��,5.7,��
2017/09/02,20:00,0.913,1.438,0.943,1.733,1.187,0.505,0.926,0.859,�k�k��,5.7,��
2017/09/02,20:10,0.909,1.437,0.942,1.733,1.187,0.503,0.927,0.859,�k�k��,6.5,��
2017/09/02,20:20,0.912,1.438,0.942,1.733,1.185,0.506,0.926,0.860,�k�k��,7.0,��
2017/09/02,20:30,0.914,1.437,0.941,1.735,1.186,0.505,0.925,0.860,�k,7.1,��
2017/09/02,20:40,0.914,1.439,0.941,1.734,1.187,0.506,0.928,0.860,�k,6.8,��
2017/09/02,20:50,0.915,1.438,0.941,1.733,1.187,0.504,0.925,0.860,�k,7.7,��
2017/09/02,21:00,0.916,1.440,0.944,1.735,1.188,0.505,0.927,0.859,�k�k��,7.8,��
2017/09/02,21:10,0.914,1.441,0.945,1.730,1.187,0.504,0.925,0.859,�k�k��,7.3,��
2017/09/02,21:20,0.913,1.441,0.943,1.733,1.187,0.504,0.927,0.860,�k�k��,8.0,��
2017/09/02,21:30,0.916,1.442,0.945,1.735,1.189,0.507,0.928,0.860,�k�k��,8.9,��
2017/09/02,21:40,0.916,1.440,0.944,1.735,1.189,0.505,0.929,0.859,�k�k��,8.2,��
2017/09/02,21:50,0.917,1.440,0.944,1.738,1.188,0.504,0.927,0.859,�k,6.4,��
2017/09/02,22:00,0.915,1.440,0.943,1.734,1.188,0.505,0.928,0.858,�k,6.9,��
2017/09/02,22:10,0.915,1.439,0.943,1.737,1.189,0.506,0.926,0.857,�k�k��,7.9,��
2017/09/02,22:20,0.916,1.440,0.943,1.736,1.189,0.505,0.929,0.860,�k,6.9,�L
2017/09/02,22:30,0.916,1.439,0.943,1.735,1.188,0.506,0.927,0.859,�k,6.6,�L
2017/09/02,22:40,0.916,1.443,0.945,1.735,1.188,0.505,0.926,0.860,�k,8.4,�L
2017/09/02,22:50,0.915,1.440,0.944,1.734,1.190,0.506,0.926,0.860,�k,7.0,��
2017/09/02,23:00,0.914,1.441,0.943,1.736,1.187,0.506,0.926,0.859,�k,7.4,�L
2017/09/02,23:10,0.916,1.442,0.943,1.735,1.189,0.506,0.928,0.862,�k,6.9,�L
2017/09/02,23:20,0.914,1.442,0.944,1.734,1.189,0.506,0.926,0.860,�k,6.2,�L
2017/09/02,23:30,0.914,1.444,0.944,1.737,1.188,0.505,0.928,0.860,�k�k��,8.1,��
2017/09/02,23:40,0.917,1.443,0.944,1.738,1.189,0.507,0.929,0.860,�k�k��,8.0,��
2017/09/02,23:50,0.916,1.442,0.946,1.737,1.188,0.505,0.928,0.861,�k�k��,9.4,��
